Simultaneous Nadir Overpasses (SNOs) Predictions

Prediction of SNOs between GOES-16 and METOP-B Satellite Orbit:

Table of predicted SNOs for the next 14.0 days since TLE Epoch: 8/19/2023
Index Date Time (GOES-16) GOES-16 Lat,Lon METOP-B Lat,Lon Distance(km) Time Diff (sec)
1 08/19/2023 14:37:04 -0.03, -75.21 0.46, -77.32 239.86 80
2 08/20/2023 14:19:05 -0.03, -75.22 -0.69, -72.33 329.91 80
3 08/22/2023 02:35:24 0.03, -75.22 -0.34, -76.92 193.98 80
4 08/23/2023 02:17:24 0.02, -75.22 0.75, -71.92 375.96 80
5 08/24/2023 14:33:35 -0.02, -75.24 0.22, -76.49 141.81 80
6 08/25/2023 14:15:34 -0.02, -75.25 -0.87, -71.49 428.13 80
7 08/27/2023 02:31:54 0.02, -75.25 -0.15, -76.09 95.67 80
8 08/28/2023 02:11:13 0.02, -75.26 0.95, -71.09 474.40 80
9 08/29/2023 14:32:43 -0.01, -75.28 0.08, -75.65 42.51 80
10 09/01/2023 02:28:22 0.01, -75.30 0.02, -75.25 5.76 80
